Location: Salillas
(41.9950°N, 0.2228°W)
Time: 08:40:48
(UTC+00:00)

Spot 2 Rocket - Pass Details

Date: 29 March 2020
Orbit: 757 x 772 km, 98.6° (Epoch: 03 June)

Event Time Altitude Azimuth Distance (km) Brightness Sun altitude
Exits shadow 20:33:06 44° 61° (ENE) 1,062 3.9 -23.6°
Drops below altitude 10° 20:37:42 10° 359° (N) 2,326 6.4 -24.4°
Sets 20:40:06 0° 353° (N) 3,257 7.3 -24.8°
